Dewpoint
2 1 2 0 0 -0 -0 1 0 -0 -1 -1 -1 -1 -1 -0 -0 -0 1 1 -2 1 1 1 -4 1 1 2 3 6 5 4 2 4 7 4 1 -2 -4 -4 -3 -5 -5 -5 -7 -8 -5
0 1 1 1 0 0 -0 -1 1 0 -0 0 0 -1 -1 -1 -1 -0 -0 0 0 1 1 -5 -5 0 3 0 1 4 5 5 7 6 4 4 0 -2 -5 -5 -4 -4 -6 -7 -7 -7 -2
1 1 1 1 1 1 0 -1 -1 -1 -0 1 1 -0 -1 -2 -1 -1 -0 1 -0 -10 -11 -11 -6 0 0 -1 -1 -4 5 5 8 7 5 2 0 -1 -6 -4 -4 -4 -6 -7 -7 -6 -2
1 1 1 1 1 -0 0 -0 -0 0 -0 -1 -0 1 1 -1 -1 -1 -3 -7 -6 -10 -13 -13 -2 0 0 -8 -8 -3 1 4 6 8 7 1 2 -1 -6 -6 -5 -5 -6 -7 -8 -5 -4
-0 -0 -1 -0 -0 -0 0 -0 -0 -1 -0 -1 -0 1 1 0 0 -3 -7 -5 -6 -7 -7 -5 1 0 1 -1 -4 -6 -2 4 6 7 7 5 3 -1 -3 -3 -3 -5 -3 -6 -7 -5 -4
-1 -1 -1 -1 -1 -1 -1 -0 -0 0 -1 -1 -1 -1 -1 0 -0 -2 -5 -6 -5 -0 1 1 0 1 -1 -0 2 5 0 6 7 8 7 4 2 -0 -2 -3 -2 -2 -3 -4 -6 -3 -4
-1 -1 -1 -1 -1 -2 -1 -1 -1 -1 -0 -1 -1 -1 -1 -1 -2 -2 -4 -6 -5 -6 -5 -2 -2 -2 0 -0 0 2 4 6 7 6 5 2 4 4 0 -4 -5 -5 -4 -4 -5 -3 -4
-1 -1 -2 -2 -2 -2 -1 -1 -1 -1 -1 -0 -1 0 1 -2 -5 -2 -3 -2 -1 -1 -2 -5 -2 -2 -2 -3 -5 3 5 6 7 7 1 2 5 2 -1 -4 -5 -5 -5 -4 -2 -2 -6
-1 -2 -2 -2 -2 -2 -2 -2 -2 -1 -1 -1 -2 -0 -2 -3 -3 -2 -2 -2 -1 -1 -2 -3 -1 -1 0 0 -2 0 4 6 6 6 4 4 2 0 -1 -2 -3 -5 -5 -3 -3 -2 -3
-1 -1 -2 -3 -2 -2 -2 -2 -3 -1 -1 -2 -4 -2 -2 -5 -4 -2 -1 -2 -1 -1 -5 -4 -2 -1 -1 -1 1 -1 3 5 6 7 4 2 1 1 -1 -1 -3 -1 -6 -2 0 -1 -0
-1 -2 -1 -3 -3 -2 -2 -2 -2 -2 -1 -4 -2 -2 -3 -2 -1 -1 -0 -1 -1 -1 -7 -6 -2 -3 -1 1 1 2 -0 3 6 6 3 4 2 1 1 -1 -4 -2 -3 -1 -1 -1 -0
-1 -2 -2 -2 -2 -3 -3 -3 -3 -2 -2 -3 -2 -2 -4 -5 -2 -1 -1 -0 -1 -7 -5 -2 -1 -0 1 1 0 1 4 3 6 4 2 1 -1 -0 -1 -2 -4 -0 1 1 2 1 2
-3 -2 -2 -2 -2 -2 -3 -3 -3 -3 -4 -3 -2 -4 -5 -4 -2 -2 -1 -1 -6 -5 -4 -2 -1 0 1 2 2 2 4 5 6 7 7 3 1 -1 -3 -1 -1 -0 -0 4 4 3 3
-2 -2 -2 -2 -3 -3 -3 -3 -3 -7 -10 -5 -4 -7 -10 -11 -5 -3 -2 -6 -5 -5 -4 -3 -2 -1 1 2 3 3 3 4 5 5 6 7 6 0 -2 -2 -1 -0 -3 3 2 5 4
-2 -2 -3 -3 -3 -3 -3 -3 -3 -16 -13 -8 -4 -6 -11 -14 -10 -6 -6 -3 -1 -1 -1 -1 -2 1 0 2 2 3 4 4 5 4 5 6 4 -0 -2 -3 -3 -1 -0 -2 1 1 3
-2 -2 -3 -3 -3 -3 -4 -3 -3 -17 -13 -9 -6 -8 -11 -13 -10 -9 -5 -3 -2 -4 -4 -2 1 0 1 1 0 2 3 3 4 3 1 1 4 0 -1 -2 -2 -2 -4 0 1 4 5
-2 -3 -3 -2 -3 -4 -4 -3 -4 -18 -15 -9 -8 -8 -12 -14 -10 -7 -5 -3 -3 -5 -5 -1 -1 1 1 0 1 1 3 3 2 3 1 -0 1 2 0 1 1 -0 -1 -1 -2 2 3
-3 -3 -2 -3 -3 -3 -4 -4 -5 -16 -19 -10 -9 -7 -10 -13 -7 -8 -7 -4 -5 -4 -6 -3 -4 -1 -1 -2 1 2 2 2 1 1 3 3 0 4 3 -1 -2 -2 -1 -0 1 2 1
-2 -2 -4 -3 -4 -4 -4 -4 -8 -16 -16 -10 -7 -8 -9 -11 -7 -5 -6 -5 -5 -5 -5 -4 -4 -4 -4 -3 -0 -0 -1 -2 -2 1 5 4 5 4 4 1 -1 0 -1 -1 -1 -0 1
-2 -2 -2 -4 -4 -4 -4 -9 -17 -17 -17 -13 -7 -8 -8 -6 -5 -6 -5 -5 -5 -7 -5 -6 -4 -5 -4 -3 -4 -4 -2 -1 -5 2 3 3 5 4 4 3 2 2 0 -1 -0 2 1
-2 -2 -4 -4 -4 -4 -5 -13 -20 -18 -17 -11 -7 -5 -6 -7 -6 -6 -7 -9 -5 -5 -6 -6 -5 -5 -2 -2 -4 -4 -5 -4 -4 -0 1 4 5 5 4 2 2 2 2 1 1 -0 1
-2 -2 -3 -3 -3 -5 -7 -17 -23 -20 -16 -14 -6 -6 -5 -5 -7 -11 -9 -10 -5 -5 -5 -6 -4 -4 -3 -3 -4 -3 -3 -4 -2 -2 -1 1 5 4 5 2 0 2 1 0 1 0 -0
-2 -2 -3 -4 -4 -6 -12 -18 -25 -21 -16 -9 -6 -5 -5 -7 -11 -11 -8 -5 -6 -5 -7 -5 -4 -3 -4 -4 -2 -3 -2 -2 -2 -1 -1 0 4 5 6 2 2 2 1 1 1 -0 0
-2 -3 -5 -8 -7 -11 -11 -9 -17 -22 -16 -9 -7 -5 -6 -9 -8 -8 -6 -6 -5 -5 -4 -6 -5 -4 -5 -5 -3 -3 -3 -3 -3 -3 -2 -1 1 3 5 5 7 1 -1 -2 0 -0 -1
-3 -5 -8 -11 -15 -25 -20 -8 -4 -11 -16 -9 -6 -5 -6 -6 -6 -7 -6 -7 -6 -7 -7 -6 -6 -9 -5 -3 -3 -5 -1 -1 -2 -2 -3 -2 1 3 4 5 5 2 -1 -1 -0 -0 -2
-8 -7 -9 -11 -16 -27 -28 -17 -9 -4 -12 -9 -6 -4 -5 -5 -9 -5 -5 -6 -6 -8 -10 -8 -14 -7 -5 -2 -3 -5 -2 -2 1 3 -2 -2 -0 1 4 5 5 1 -3 -4 -3 1 -3
-10 -8 -8 -10 -12 -20 -31 -21 -15 -5 -6 -8 -5 -5 -5 -4 -5 -4 -6 -5 -5 -6 -10 -9 -11 -7 -7 -8 -8 -3 -1 -0 2 3 2 1 1 1 1 3 -2 -5 -6 -5 2 -0 -5
-9 -9 -8 -9 -11 -15 -28 -25 -17 -13 -4 -7 -6 -7 -9 -6 -6 -5 -5 -4 -4 -6 -10 -10 -13 -10 -8 -6 -7 -6 -3 -1 -0 -3 -3 -4 -6 2 2 4 5 -8 -8 -5 -7 -8 -8
-6 -9 -8 -8 -10 -12 -20 -29 -19 -15 -11 -9 -7 -8 -13 -5 -7 -7 -5 -3 -4 -13 -18 -13 -17 -9 -5 -7 -9 -9 -5 -3 -2 -1 -8 -7 -10 -8 -8 -5 -9 -10 -8 -9 -9 -9 -9
Wind_Speed
24 23 24 25 25 26 25 27 27 28 26 23 22 21 19 16 16 15 12 11 12 12 11 13 13 11 10 6 12 12 9 3 27 26 28 26 25 11 6 6 7 4 5 11 9 1 1
24 25 25 26 26 28 28 25 25 29 28 26 24 21 20 19 17 16 15 14 13 13 12 12 10 9 6 10 17 11 7 5 14 29 31 28 19 19 8 7 6 11 4 3 6 6 6
25 26 27 26 27 27 27 28 27 26 26 29 26 24 21 19 19 19 17 16 16 14 13 13 12 8 9 20 18 17 11 5 9 29 30 29 11 23 6 4 7 7 6 4 1 7 5
24 26 27 28 28 28 28 27 25 27 26 27 26 26 25 22 21 20 20 18 16 14 13 14 10 7 9 10 18 22 12 9 11 23 27 30 15 28 5 7 4 7 5 4 2 6 3
25 25 24 26 26 28 29 29 30 28 27 28 26 26 26 23 23 22 19 18 15 10 7 5 3 5 9 6 10 16 17 10 12 15 28 21 24 7 5 6 4 1 5 5 2 4 5
29 29 28 28 26 26 27 29 30 31 30 29 29 28 25 24 23 21 19 16 6 7 10 8 1 2 5 5 8 3 10 12 9 20 19 16 10 4 3 5 14 7 7 3 7 6 3
30 33 34 32 30 28 27 28 31 31 31 30 30 29 25 22 20 18 21 6 8 2 10 1 4 9 21 14 11 9 8 15 7 20 7 9 9 17 21 6 5 6 6 5 2 5 5
32 33 34 35 34 31 28 30 31 32 32 32 32 30 25 19 13 13 18 11 8 6 6 2 3 13 16 13 7 4 10 11 9 12 8 5 21 12 11 7 5 7 9 4 3 3 3
30 32 33 35 34 34 30 28 29 31 32 33 31 26 22 17 6 10 16 15 11 9 1 5 5 6 6 7 5 5 7 8 8 13 15 9 3 12 8 6 6 3 9 5 7 4 4
31 32 34 35 36 35 33 30 30 31 32 31 25 22 22 13 5 11 13 15 15 7 3 5 3 3 9 4 6 13 12 4 7 14 12 0 5 14 8 11 7 3 5 6 10 6 5
30 32 34 36 36 36 35 32 31 31 33 26 17 20 22 17 9 12 14 16 14 3 5 8 4 7 10 3 12 4 16 9 7 7 7 9 16 17 18 11 7 3 7 7 3 5 5
33 33 34 35 36 35 33 32 31 31 31 18 13 18 21 18 12 9 14 15 7 5 3 7 4 9 7 3 5 7 6 15 2 7 5 4 8 10 6 7 6 8 8 8 5 3 2
32 34 35 36 36 36 34 33 33 31 28 13 11 18 23 22 21 17 14 11 5 6 6 9 7 8 10 3 2 2 2 7 5 8 7 4 4 4 11 12 3 5 8 2 2 1 5
32 33 35 36 36 36 35 34 33 29 26 10 6 17 23 25 18 14 12 5 9 5 4 5 6 13 4 6 1 3 2 2 10 3 5 6 5 9 8 17 12 15 12 6 8 5 3
31 33 34 36 36 36 35 34 33 27 24 11 3 10 27 25 15 15 4 6 3 4 6 7 14 3 3 2 2 2 3 2 5 7 5 5 3 4 4 4 11 8 12 6 7 2 4
33 33 35 37 37 36 35 34 33 27 23 11 4 8 31 19 16 11 7 3 2 4 12 4 4 5 4 6 5 4 3 3 4 10 3 6 5 3 0 3 2 14 8 2 2 6 5
34 35 36 38 38 37 36 34 31 26 24 9 6 4 29 16 9 16 4 4 5 11 14 4 6 5 6 6 6 5 5 6 8 9 5 4 4 1 6 8 11 3 11 4 5 4 5
35 36 36 39 39 37 35 34 30 27 25 9 8 4 29 8 10 4 3 8 10 8 13 4 3 6 6 8 6 2 7 3 9 7 2 1 3 5 17 1 2 5 6 4 6 8 2
33 35 36 38 40 37 35 32 27 25 24 15 5 5 20 15 4 6 6 4 4 7 7 8 4 6 12 5 5 10 8 8 17 9 5 4 1 7 3 2 2 6 7 14 9 4 10
32 34 37 38 40 38 35 31 25 24 23 13 4 4 9 17 10 6 6 5 10 14 4 8 5 8 13 3 5 5 7 6 19 9 17 4 3 3 10 16 12 12 13 8 16 11 5
33 34 37 37 38 37 34 30 25 24 23 8 7 3 4 3 6 6 4 2 7 9 7 10 5 10 10 6 9 5 7 11 9 15 10 4 3 3 1 4 16 20 16 12 13 19 13
32 34 36 36 37 36 33 29 25 26 20 24 6 5 4 4 4 4 7 4 6 6 4 6 2 15 10 4 3 11 8 4 3 8 9 7 0 4 2 4 3 13 13 22 16 16 16
31 34 35 35 35 34 31 28 25 26 25 13 9 6 3 5 4 3 2 5 6 15 6 11 11 14 8 3 11 17 16 14 10 8 5 5 3 3 4 2 4 2 14 14 19 14 12
30 33 35 36 35 33 29 26 24 23 22 16 14 7 5 2 3 1 4 8 8 9 7 14 19 6 7 29 27 17 19 20 17 13 12 4 4 2 2 3 5 3 5 7 10 6 10
30 31 33 37 35 34 28 24 23 22 19 14 12 8 6 2 5 5 11 3 10 13 4 5 9 23 23 14 4 5 1 2 5 10 13 11 3 2 2 5 0 6 2 1 6 8 7
31 31 32 35 36 34 29 23 22 20 17 11 12 11 6 2 3 4 6 5 5 5 6 4 26 9 13 3 3 3 2 4 1 1 5 6 6 4 2 4 7 3 12 24 11 2 18
31 30 32 34 36 35 31 23 21 19 17 11 10 8 6 3 2 5 2 4 5 4 2 9 23 10 13 4 4 4 4 8 5 5 3 3 2 7 4 2 4 15 24 20 8 5 29
30 32 31 33 35 36 32 23 19 20 14 10 8 11 16 5 7 4 7 4 4 6 2 13 8 7 6 7 4 3 3 4 5 5 7 4 4 1 3 5 5 31 9 7 12 23 25
30 31 32 31 33 35 33 25 17 18 15 11 6 12 22 4 5 6 3 5 1 8 11 5 5 6 4 3 2 2 3 3 5 2 8 4 2 3 2 3 1 21 5 19 21 23 28
Wind_Direction
8 4 2 2 2 356 354 355 356 355 353 347 346 344 339 339 335 333 326 310 308 304 299 291 302 313 319 296 257 162 127 185 197 197 193 181 181 179 173 182 138 180 187 197 172 118 271
10 10 6 1 6 359 357 352 353 355 358 354 349 343 341 337 335 333 328 320 304 301 296 290 292 304 307 296 265 261 264 34 196 192 194 190 186 182 181 186 171 195 171 169 179 160 153
10 11 10 7 3 360 360 358 355 351 351 352 352 348 342 341 338 332 328 320 309 296 290 283 285 284 263 253 281 280 251 216 177 199 196 194 178 191 171 126 179 162 138 30 162 161 144
7 5 8 6 7 5 2 358 356 356 352 349 343 345 344 340 336 330 324 323 312 294 283 276 276 281 260 284 258 267 262 240 221 200 199 198 184 194 190 137 93 107 66 140 280 140 131
2 359 357 357 359 0 2 2 1 359 355 350 347 345 341 337 336 335 334 335 320 307 306 269 189 226 263 315 264 268 255 232 211 193 200 201 199 209 165 125 76 7 161 168 195 215 123
9 8 3 358 352 352 354 357 359 357 355 350 348 341 337 337 339 346 345 341 23 58 64 95 115 247 307 347 322 227 240 199 183 161 166 179 179 152 122 153 191 168 123 146 162 197 79
11 10 7 5 360 354 352 353 354 355 354 351 348 345 342 341 344 1 354 10 22 352 11 81 261 272 287 291 329 215 238 204 172 174 158 172 171 201 191 127 139 128 116 135 190 188 118
12 11 6 4 2 359 356 356 356 353 354 352 348 347 346 350 353 18 14 60 35 349 311 47 316 282 292 309 274 246 231 182 195 177 126 131 208 191 153 142 129 143 155 154 71 66 90
10 9 8 3 2 0 1 358 353 353 352 353 354 357 360 353 31 26 34 26 1 343 269 291 311 336 343 325 258 257 245 212 191 170 176 185 227 155 153 151 157 140 171 163 145 110 60
8 7 8 4 2 2 0 358 354 354 354 354 3 15 8 13 30 19 17 357 350 359 60 323 2 309 353 296 271 239 223 207 178 189 177 17 197 159 144 179 142 140 166 131 130 109 172
9 5 5 5 2 2 1 358 355 355 354 1 25 24 13 19 22 9 336 335 336 337 57 305 325 332 316 258 315 167 215 258 172 186 152 190 166 166 177 178 133 182 132 128 113 106 108
4 6 6 5 3 1 0 358 355 356 357 15 25 13 3 5 9 346 330 331 325 42 309 329 330 333 321 263 238 322 173 226 230 170 107 133 159 155 148 137 134 157 88 50 55 83 260
7 3 3 6 3 1 1 358 356 356 1 23 34 12 13 9 344 341 335 325 37 80 338 316 331 322 322 292 224 245 304 190 154 159 156 87 160 126 137 125 90 142 126 66 14 294 216
7 4 3 4 5 2 1 357 356 358 3 18 50 18 17 6 350 341 343 43 60 251 282 295 297 310 308 342 2 173 203 256 203 94 114 146 169 171 180 177 183 178 166 151 178 186 173
6 5 2 4 5 3 0 358 356 1 2 7 360 354 6 3 357 350 7 47 6 318 330 304 312 315 328 307 277 335 206 212 240 194 143 147 123 180 180 142 153 190 206 156 102 31 94
9 5 4 4 4 3 1 359 357 3 5 3 2 354 8 10 3 6 62 86 292 335 328 301 306 12 314 321 4 22 30 202 324 214 294 184 124 198 125 133 42 186 156 93 51 149 200
12 9 5 5 4 4 2 360 359 5 7 11 3 47 2 13 27 48 68 342 305 311 351 327 336 294 355 341 326 332 357 19 2 325 267 189 129 170 134 207 174 135 191 184 141 145 167
11 10 6 4 3 3 5 1 2 6 8 22 36 49 8 31 54 57 35 323 321 315 347 331 307 304 13 319 315 0 23 0 3 300 157 286 159 142 196 342 176 177 178 155 199 216 109
8 7 8 4 3 3 4 6 7 11 7 11 49 21 22 37 64 29 326 306 307 333 327 345 318 355 342 346 347 3 345 310 352 349 0 326 332 147 110 333 28 187 205 201 210 95 202
6 8 6 5 3 4 5 13 15 16 14 27 32 24 16 45 58 36 3 351 346 332 300 340 296 340 343 337 5 293 332 321 339 354 329 274 138 149 197 213 194 203 208 209 209 222 210
6 8 7 6 5 5 7 12 24 22 25 43 47 48 13 5 7 14 345 9 348 354 339 332 337 1 351 316 323 11 357 331 337 4 339 12 136 180 297 337 190 214 208 189 203 218 211
8 9 9 7 6 8 10 13 19 22 28 50 70 33 14 38 339 34 352 329 331 337 301 309 316 317 316 287 268 304 320 347 317 343 2 342 354 151 305 32 43 207 220 229 222 223 231
7 8 8 9 8 9 14 14 16 18 22 40 46 61 31 357 7 52 322 336 318 324 274 270 298 321 323 317 314 294 287 276 280 318 342 313 301 157 182 20 40 327 213 212 226 228 207
7 8 11 12 10 9 13 14 14 15 20 27 29 38 28 318 34 293 334 333 326 325 281 293 313 325 281 310 308 283 257 254 255 247 234 285 313 288 152 101 209 270 295 230 214 225 218
6 6 10 12 12 10 9 13 11 9 15 21 26 35 21 8 327 333 329 298 315 322 271 272 310 318 316 308 315 342 233 302 249 226 213 208 300 343 174 185 288 311 311 127 176 252 357
6 7 7 9 12 10 6 5 10 7 13 16 14 31 3 345 276 320 320 330 350 325 336 258 340 0 351 301 6 357 304 235 10 127 186 189 256 324 319 178 197 26 321 328 298 273 9
2 3 5 6 8 8 5 1 0 4 3 16 16 15 351 314 290 341 352 317 334 338 280 309 339 342 5 6 18 7 333 325 3 338 155 157 200 234 247 310 321 345 324 313 179 303 333
360 0 2 4 4 6 4 359 358 1 352 9 14 359 346 289 287 295 337 326 345 47 62 315 352 5 340 27 32 317 332 337 343 51 340 29 312 313 211 216 240 354 12 45 330 318 327
358 358 358 359 1 3 2 359 353 356 354 353 354 349 346 220 283 305 21 14 157 52 8 321 259 280 296 17 9 345 337 322 324 342 7 25 38 283 27 321 347 339 70 3 345 328 327
Height
1516 1509 1504 1499 1494 1490 1486 1481 1474 1469 1464 1459 1455 1451 1447 1444 1441 1438 1436 1434 1434 1433 1432 1432 1431 1431 1429 1434 1424 1424 1425 1427 1431 1437 1441 1445 1450 1455 1460 1461 1464 1465 1464 1466 1466 1468 1470
1515 1510 1506 1501 1496 1490 1484 1479 1474 1469 1464 1459 1454 1450 1446 1443 1440 1437 1435 1433 1432 1430 1429 1429 1429 1428 1428 1430 1421 1422 1424 1425 1431 1434 1439 1443 1446 1453 1456 1458 1461 1460 1462 1463 1465 1467 1469
1517 1512 1506 1501 1496 1491 1486 1480 1474 1470 1465 1460 1455 1449 1445 1441 1438 1435 1433 1431 1429 1427 1426 1426 1426 1427 1429 1422 1418 1421 1424 1428 1429 1432 1435 1441 1445 1452 1454 1458 1457 1459 1463 1464 1465 1466 1470
1518 1512 1507 1502 1496 1490 1485 1479 1474 1469 1464 1459 1455 1450 1445 1440 1437 1433 1429 1427 1425 1423 1423 1423 1424 1425 1421 1418 1418 1420 1422 1424 1428 1430 1435 1440 1446 1450 1453 1454 1457 1463 1468 1475 1467 1465 1469
1518 1513 1507 1501 1496 1491 1485 1479 1474 1469 1464 1458 1453 1448 1443 1439 1435 1431 1427 1425 1422 1420 1420 1420 1423 1424 1418 1416 1414 1415 1419 1422 1425 1428 1434 1441 1446 1449 1451 1456 1465 1463 1477 1474 1467 1466 1467
1518 1511 1505 1501 1496 1491 1485 1480 1474 1468 1462 1456 1451 1446 1442 1437 1434 1429 1425 1422 1421 1420 1421 1422 1423 1426 1418 1417 1415 1415 1416 1419 1423 1427 1434 1440 1444 1449 1452 1456 1457 1467 1472 1469 1470 1468 1467
1520 1514 1508 1502 1495 1490 1485 1479 1474 1467 1461 1455 1450 1444 1439 1436 1433 1430 1425 1422 1424 1424 1422 1423 1424 1421 1416 1417 1416 1415 1417 1418 1421 1424 1428 1433 1440 1437 1435 1446 1447 1456 1462 1464 1464 1464 1467
1523 1517 1510 1503 1496 1490 1483 1478 1474 1467 1460 1454 1448 1443 1438 1436 1433 1431 1428 1427 1431 1434 1429 1422 1422 1418 1416 1414 1415 1413 1416 1415 1416 1418 1425 1435 1428 1434 1439 1443 1448 1453 1460 1462 1465 1465 1466
1523 1518 1511 1503 1496 1489 1483 1479 1473 1467 1461 1454 1448 1443 1439 1435 1434 1433 1430 1431 1431 1429 1430 1424 1421 1419 1416 1415 1414 1409 1413 1409 1412 1416 1418 1423 1425 1433 1438 1445 1449 1455 1458 1464 1465 1469 1473
1524 1518 1512 1506 1498 1491 1485 1479 1473 1467 1461 1453 1448 1445 1441 1436 1437 1435 1433 1432 1430 1429 1438 1426 1421 1420 1418 1415 1412 1408 1412 1412 1411 1411 1420 1425 1426 1431 1440 1444 1448 1455 1455 1458 1467 1472 1488
1526 1521 1514 1508 1501 1493 1486 1479 1473 1467 1460 1454 1450 1447 1444 1439 1440 1438 1437 1433 1430 1430 1462 1427 1423 1421 1418 1418 1415 1407 1411 1413 1407 1409 1415 1420 1423 1429 1435 1438 1445 1451 1453 1460 1466 1475 1482
1527 1520 1514 1507 1500 1494 1487 1480 1473 1466 1459 1455 1453 1449 1446 1443 1441 1439 1435 1432 1431 1444 1461 1434 1424 1423 1419 1414 1412 1410 1408 1413 1407 1412 1412 1417 1420 1427 1431 1440 1444 1451 1457 1467 1477 1481 1494
1528 1521 1514 1508 1500 1493 1487 1480 1474 1466 1460 1456 1454 1451 1446 1443 1441 1437 1434 1432 1444 1462 1439 1436 1428 1424 1419 1414 1411 1411 1409 1407 1402 1407 1416 1415 1423 1423 1426 1441 1446 1447 1455 1489 1497 1503 1482
1529 1523 1515 1508 1501 1495 1488 1481 1473 1466 1461 1457 1455 1452 1449 1445 1442 1438 1435 1438 1462 1455 1452 1436 1429 1422 1419 1415 1413 1411 1411 1407 1405 1404 1415 1416 1433 1420 1421 1422 1429 1434 1439 1465 1486 1490 1479
1531 1525 1517 1509 1502 1495 1488 1480 1472 1464 1460 1457 1455 1453 1448 1444 1441 1438 1438 1456 1458 1453 1450 1442 1430 1423 1421 1418 1417 1410 1409 1410 1401 1400 1405 1418 1418 1415 1417 1419 1424 1441 1442 1440 1466 1472 1476
1533 1526 1518 1511 1504 1496 1488 1480 1472 1465 1461 1456 1455 1453 1452 1447 1444 1441 1446 1458 1458 1453 1449 1444 1435 1428 1424 1419 1418 1412 1411 1405 1402 1399 1401 1403 1417 1416 1418 1419 1424 1424 1428 1449 1458 1473 1465
1533 1527 1521 1513 1504 1496 1490 1482 1473 1466 1461 1456 1455 1455 1455 1450 1446 1446 1469 1466 1458 1452 1451 1448 1444 1435 1433 1431 1422 1418 1415 1411 1413 1408 1401 1399 1401 1421 1418 1419 1420 1429 1429 1435 1439 1456 1463
1536 1529 1522 1515 1506 1498 1488 1483 1476 1470 1463 1459 1458 1462 1459 1451 1452 1464 1474 1469 1463 1454 1451 1450 1448 1442 1440 1433 1422 1420 1422 1422 1419 1415 1404 1403 1401 1419 1416 1416 1414 1418 1420 1432 1436 1449 1461
1538 1531 1523 1516 1508 1499 1491 1483 1479 1473 1467 1462 1463 1465 1464 1455 1474 1474 1471 1469 1466 1460 1455 1450 1449 1446 1442 1437 1432 1423 1422 1424 1421 1413 1406 1405 1409 1416 1421 1419 1417 1417 1419 1419 1422 1435 1444
1540 1533 1526 1518 1511 1503 1495 1486 1481 1476 1471 1467 1468 1473 1470 1469 1477 1477 1475 1471 1468 1464 1460 1457 1452 1445 1441 1439 1438 1437 1432 1423 1419 1416 1411 1411 1410 1407 1407 1400 1407 1413 1410 1417 1418 1428 1432
1541 1534 1529 1521 1514 1506 1498 1490 1484 1481 1475 1472 1475 1484 1484 1488 1481 1482 1480 1481 1477 1473 1465 1461 1455 1454 1455 1448 1437 1434 1431 1427 1421 1422 1414 1411 1410 1413 1412 1411 1405 1404 1407 1415 1420 1418 1425
1543 1537 1531 1524 1516 1508 1502 1497 1490 1486 1482 1476 1480 1485 1485 1486 1486 1484 1484 1487 1480 1473 1472 1467 1466 1459 1456 1454 1453 1444 1441 1434 1433 1426 1423 1422 1412 1412 1412 1410 1409 1407 1407 1406 1410 1410 1415
1545 1539 1532 1525 1518 1511 1505 1500 1496 1491 1488 1486 1486 1485 1486 1488 1489 1490 1492 1486 1483 1478 1469 1466 1465 1460 1451 1449 1447 1446 1443 1439 1439 1438 1433 1430 1418 1413 1413 1416 1414 1418 1404 1402 1399 1403 1407
1547 1540 1534 1527 1521 1514 1509 1505 1500 1496 1494 1493 1491 1489 1488 1496 1492 1492 1489 1486 1481 1480 1476 1466 1463 1462 1453 1448 1442 1433 1432 1433 1435 1435 1439 1436 1426 1419 1414 1414 1409 1397 1401 1397 1399 1399 1401
1549 1543 1536 1529 1522 1517 1511 1507 1504 1499 1496 1495 1494 1493 1493 1492 1491 1489 1486 1484 1480 1478 1473 1469 1465 1461 1449 1444 1439 1440 1427 1427 1421 1426 1430 1432 1428 1417 1415 1413 1413 1404 1397 1402 1400 1401 1408
1549 1544 1538 1531 1525 1519 1514 1510 1506 1503 1498 1497 1497 1496 1495 1494 1492 1490 1488 1485 1482 1479 1473 1467 1464 1457 1454 1447 1444 1454 1444 1430 1414 1416 1424 1429 1432 1430 1417 1410 1410 1420 1418 1412 1405 1412 1422
1551 1545 1540 1534 1528 1521 1516 1511 1508 1505 1500 1497 1497 1498 1495 1493 1490 1488 1488 1487 1485 1483 1483 1474 1466 1459 1457 1461 1465 1453 1439 1435 1425 1415 1421 1428 1431 1429 1425 1415 1427 1434 1426 1412 1402 1425 1429
1551 1547 1541 1535 1529 1523 1517 1513 1509 1505 1503 1500 1497 1497 1498 1493 1491 1489 1488 1486 1486 1486 1489 1479 1472 1468 1465 1467 1472 1469 1458 1446 1441 1449 1446 1449 1459 1422 1422 1411 1404 1440 1424 1430 1454 1442 1438
1551 1546 1542 1536 1529 1524 1518 1513 1510 1507 1504 1501 1497 1497 1493 1491 1491 1490 1489 1487 1485 1485 1485 1482 1483 1479 1474 1475 1475 1474 1469 1456 1452 1443 1460 1465 1479 1472 1467 1453 1457 1457 1454 1455 1452 1446 1435